Capitol Logistics 464


KTPA
Tampa International Airport
Tampa, Florida, US
KRIV
March Air Reserve Base
Riverside, California, US

Activity Log

Date Flight Route Aircraft Duration
07/02/2019 CPX464 ENDED8 LACEN PATOY Q116 JAWJA CABLO MEI ELD SPS J72 TXO DRK J78 TRM ARKOE1 B738 4h 36m

Route Details

Aircraft Information
Primary: Boeing 737-800BCF
Backup: Not Available
Route Data
Distance: 1817nm
Sched. Duration: 5h 15m
Avg. Duration: 4h 36m (-79m)
Times Flown: 1
Recm'd Route: ENDED8 LACEN PATOY Q116 JAWJA CABLO MEI ELD SPS J72 TXO DRK J78 TRM ARKOE1
Planned Altitude: 34,000ft
Origin Wx: KTPA 030053Z 11012G16KT 10SM FEW030 BKN140 OVC280 27/18 A3008 RMK AO2 SLP186 T02670183
Dest. Wx: KRIV 030058Z AUTO 29009KT 10SM CLR 30/14 A2995 RMK AO2 SLP130 T02950137
Notes:

Financial History
Total Freight: 43,296lbs
Average Load: 43,296lbs/flt
Fuel Used: 25,378lbs
Avg. Fuel Used: 25,378lbs/flt
Fuel Expense: $25,632
Avg. Fuel Expense: $25,632
Avg. Fuel Cost: $1.01/lbs
Total Gross Income: $56,718
Pilot Pay: $229
Total Expenses: $6,178
Total Revenue: $23,809
Average Revenue: $56,717.76